Office,Edinburgh
Station Name,Kinbuck
Location Code,14890
Parameter,River Stage(SG)
Timeseries,SG.15m.Cmd
Copyright SEPA 2018. This SEPA Data is licensed under the Open Government Licence 3.0., http://www.nationalarchives.gov.uk/doc/open-government-licence/version/3
Date/Time,SG(m)
20/12/2020 00:30:00,1.14
20/12/2020 00:45:00,1.139
20/12/2020 01:00:00,1.136
20/12/2020 01:15:00,1.136
20/12/2020 01:30:00,1.135
20/12/2020 01:45:00,1.131
20/12/2020 02:00:00,1.127
20/12/2020 02:15:00,1.127
20/12/2020 02:30:00,1.123
20/12/2020 02:45:00,1.116
20/12/2020 03:00:00,1.113
20/12/2020 03:15:00,1.113
20/12/2020 03:30:00,1.102
20/12/2020 03:45:00,1.096
20/12/2020 04:00:00,1.092
20/12/2020 04:15:00,1.092
20/12/2020 04:30:00,1.083
20/12/2020 04:45:00,1.079
20/12/2020 05:00:00,1.075
20/12/2020 05:15:00,1.075
20/12/2020 05:30:00,1.063
20/12/2020 05:45:00,1.06
20/12/2020 06:00:00,1.053
20/12/2020 06:15:00,1.053
20/12/2020 06:30:00,1.048
20/12/2020 06:45:00,1.046
20/12/2020 07:00:00,1.038
20/12/2020 07:15:00,1.038
20/12/2020 07:30:00,1.031
20/12/2020 07:45:00,1.028
20/12/2020 08:00:00,1.027
20/12/2020 08:15:00,1.027
20/12/2020 08:30:00,1.02
20/12/2020 08:45:00,1.015
20/12/2020 09:00:00,1.013
20/12/2020 09:15:00,1.013
20/12/2020 09:30:00,1.007
20/12/2020 09:45:00,1.005
20/12/2020 10:00:00,1.005
20/12/2020 10:15:00,1.005
20/12/2020 10:30:00,1.003
20/12/2020 10:45:00,0.999
20/12/2020 11:00:00,0.999
20/12/2020 11:15:00,0.999
20/12/2020 11:30:00,0.996
20/12/2020 11:45:00,0.994
20/12/2020 12:00:00,0.992
20/12/2020 12:15:00,0.992
20/12/2020 12:30:00,0.987
20/12/2020 12:45:00,0.986
20/12/2020 13:00:00,0.985
20/12/2020 13:15:00,0.985
20/12/2020 13:30:00,0.978
20/12/2020 13:45:00,0.978
20/12/2020 14:00:00,0.976
20/12/2020 14:15:00,0.976
20/12/2020 14:30:00,0.972
20/12/2020 14:45:00,0.968
20/12/2020 15:00:00,0.966
20/12/2020 15:15:00,0.966
20/12/2020 15:30:00,0.962
20/12/2020 15:45:00,0.96
20/12/2020 16:00:00,0.956
20/12/2020 16:15:00,0.954
20/12/2020 16:30:00,0.953
20/12/2020 16:45:00,0.952
20/12/2020 17:00:00,0.951
20/12/2020 17:15:00,0.951
20/12/2020 17:30:00,0.945
20/12/2020 17:45:00,0.941
20/12/2020 18:00:00,0.94
20/12/2020 18:15:00,0.94
20/12/2020 18:30:00,0.935
20/12/2020 18:45:00,0.933
20/12/2020 19:00:00,0.931
20/12/2020 19:15:00,0.931
20/12/2020 19:30:00,0.926
20/12/2020 19:45:00,0.926
20/12/2020 20:00:00,0.923
20/12/2020 20:15:00,0.923
20/12/2020 20:30:00,0.919
20/12/2020 20:45:00,0.918
20/12/2020 21:00:00,0.916
20/12/2020 21:15:00,0.916
20/12/2020 21:30:00,0.911
20/12/2020 21:45:00,0.909
20/12/2020 22:00:00,0.908
20/12/2020 22:15:00,0.908
20/12/2020 22:30:00,0.902
20/12/2020 22:45:00,0.902
20/12/2020 23:00:00,0.899
20/12/2020 23:15:00,0.899
20/12/2020 23:30:00,0.897
20/12/2020 23:45:00,0.896
21/12/2020 00:00:00,0.894
21/12/2020 00:15:00,0.894
21/12/2020 00:30:00,0.893
21/12/2020 00:45:00,0.891
21/12/2020 01:00:00,0.891
21/12/2020 01:15:00,0.891
21/12/2020 01:30:00,0.893
21/12/2020 01:45:00,0.893
21/12/2020 02:00:00,0.895
21/12/2020 02:15:00,0.895
21/12/2020 02:30:00,0.898
21/12/2020 02:45:00,0.901
21/12/2020 03:00:00,0.906
21/12/2020 03:15:00,0.906
21/12/2020 03:30:00,0.91
21/12/2020 03:45:00,0.913
21/12/2020 04:00:00,0.918
21/12/2020 04:15:00,0.918
21/12/2020 04:30:00,0.926
21/12/2020 04:45:00,0.927
21/12/2020 05:00:00,0.931
21/12/2020 05:15:00,0.931
21/12/2020 05:30:00,0.935
21/12/2020 05:45:00,0.937
21/12/2020 06:00:00,0.938
21/12/2020 06:15:00,0.938
21/12/2020 06:30:00,0.939
21/12/2020 06:45:00,0.939
21/12/2020 07:00:00,0.939
21/12/2020 07:15:00,0.939
21/12/2020 07:30:00,0.941
21/12/2020 07:45:00,0.941
21/12/2020 08:00:00,0.941
21/12/2020 08:15:00,0.941
21/12/2020 08:30:00,0.941
21/12/2020 08:45:00,0.94
21/12/2020 09:00:00,0.939
21/12/2020 09:15:00,0.939
21/12/2020 09:30:00,0.935
21/12/2020 09:45:00,0.935
21/12/2020 10:00:00,0.933
21/12/2020 10:15:00,0.933
21/12/2020 10:30:00,0.931
21/12/2020 10:45:00,0.929
21/12/2020 11:00:00,0.928
21/12/2020 11:15:00,0.928
21/12/2020 11:30:00,0.923
21/12/2020 11:45:00,0.922
21/12/2020 12:00:00,0.92
21/12/2020 12:15:00,0.92
21/12/2020 12:30:00,0.917
21/12/2020 12:45:00,0.915
21/12/2020 13:00:00,0.912
21/12/2020 13:15:00,0.91
21/12/2020 13:30:00,0.909
21/12/2020 13:45:00,0.908
21/12/2020 14:00:00,0.905
21/12/2020 14:15:00,0.905
21/12/2020 14:30:00,0.9
21/12/2020 14:45:00,0.898
21/12/2020 15:00:00,0.898
21/12/2020 15:15:00,0.896
21/12/2020 15:30:00,0.894
21/12/2020 15:45:00,0.891
21/12/2020 16:00:00,0.889
21/12/2020 16:15:00,0.889
21/12/2020 16:30:00,0.887
21/12/2020 16:45:00,0.886
21/12/2020 17:00:00,0.884
21/12/2020 17:15:00,0.884
21/12/2020 17:30:00,0.88
21/12/2020 17:45:00,0.879
21/12/2020 18:00:00,0.877
21/12/2020 18:15:00,0.877
21/12/2020 18:30:00,0.875
21/12/2020 18:45:00,0.875
21/12/2020 19:00:00,0.873
21/12/2020 19:15:00,0.873
21/12/2020 19:30:00,0.872
21/12/2020 19:45:00,0.87
21/12/2020 20:00:00,0.869
21/12/2020 20:15:00,0.869
21/12/2020 20:30:00,0.869
21/12/2020 20:45:00,0.868
21/12/2020 21:00:00,0.868
21/12/2020 21:15:00,0.867
21/12/2020 21:30:00,0.868
21/12/2020 21:45:00,0.868
21/12/2020 22:00:00,0.867
21/12/2020 22:15:00,0.868
21/12/2020 22:30:00,0.867
21/12/2020 22:45:00,0.867
21/12/2020 23:00:00,0.866
21/12/2020 23:15:00,0.866
21/12/2020 23:30:00,0.866
21/12/2020 23:45:00,0.865
22/12/2020 00:00:00,0.864
22/12/2020 00:15:00,0.864
22/12/2020 00:30:00,0.862
22/12/2020 00:45:00,0.859
22/12/2020 01:00:00,0.858
22/12/2020 01:15:00,0.856
22/12/2020 01:30:00,0.856
22/12/2020 01:45:00,0.855
22/12/2020 02:00:00,0.854
22/12/2020 02:15:00,0.852
22/12/2020 02:30:00,0.85
22/12/2020 02:45:00,0.85
22/12/2020 03:00:00,0.848
22/12/2020 03:15:00,0.846
22/12/2020 03:30:00,0.844
22/12/2020 03:45:00,0.844
22/12/2020 04:00:00,0.842
22/12/2020 04:15:00,0.84
22/12/2020 04:30:00,0.839
22/12/2020 04:45:00,0.837
22/12/2020 05:00:00,0.835
22/12/2020 05:15:00,0.833
22/12/2020 05:30:00,0.833
22/12/2020 05:45:00,0.832
22/12/2020 06:00:00,0.83
22/12/2020 06:15:00,0.829
22/12/2020 06:30:00,0.829
22/12/2020 06:45:00,0.825
22/12/2020 07:00:00,0.825
22/12/2020 07:15:00,0.823
22/12/2020 07:30:00,0.823
22/12/2020 07:45:00,0.822
22/12/2020 08:00:00,0.821
22/12/2020 08:15:00,0.819
22/12/2020 08:30:00,0.819
22/12/2020 08:45:00,0.818
22/12/2020 09:00:00,0.815
22/12/2020 09:15:00,0.814
22/12/2020 09:30:00,0.813
22/12/2020 09:45:00,0.813
22/12/2020 10:00:00,0.811
22/12/2020 10:15:00,0.811
22/12/2020 10:30:00,0.81
22/12/2020 10:45:00,0.809
22/12/2020 11:00:00,0.807
22/12/2020 11:15:00,0.805
22/12/2020 11:30:00,0.803
22/12/2020 11:45:00,0.803
22/12/2020 12:00:00,0.801
22/12/2020 12:15:00,0.801
22/12/2020 12:30:00,0.801
22/12/2020 12:45:00,0.799
22/12/2020 13:00:00,0.799
22/12/2020 13:15:00,0.798
22/12/2020 13:30:00,0.796
22/12/2020 13:45:00,0.796
22/12/2020 14:00:00,0.794
22/12/2020 14:15:00,0.793
22/12/2020 14:30:00,0.793
22/12/2020 14:45:00,0.792
22/12/2020 15:00:00,0.791
22/12/2020 15:15:00,0.79
22/12/2020 15:30:00,0.79
22/12/2020 15:45:00,0.789
22/12/2020 16:00:00,0.788
22/12/2020 16:15:00,0.788
22/12/2020 16:30:00,0.786
22/12/2020 16:45:00,0.786
22/12/2020 17:00:00,0.785
22/12/2020 17:15:00,0.783
22/12/2020 17:30:00,0.783
22/12/2020 17:45:00,0.782
22/12/2020 18:00:00,0.781
22/12/2020 18:15:00,0.781
22/12/2020 18:30:00,0.78
22/12/2020 18:45:00,0.779
22/12/2020 19:00:00,0.779
22/12/2020 19:15:00,0.779
22/12/2020 19:30:00,0.778
22/12/2020 19:45:00,0.778
22/12/2020 20:00:00,0.778
22/12/2020 20:15:00,0.777
22/12/2020 20:30:00,0.776
22/12/2020 20:45:00,0.776
22/12/2020 21:00:00,0.775
22/12/2020 21:15:00,0.774
22/12/2020 21:30:00,0.774
22/12/2020 21:45:00,0.772
22/12/2020 22:00:00,0.772
22/12/2020 22:15:00,0.771
22/12/2020 22:30:00,0.771
22/12/2020 22:45:00,0.77
22/12/2020 23:00:00,0.769
22/12/2020 23:15:00,0.769
22/12/2020 23:30:00,0.768
22/12/2020 23:45:00,0.768
23/12/2020 00:00:00,0.768
23/12/2020 00:15:00,0.767
23/12/2020 00:30:00,0.766
23/12/2020 00:45:00,0.766
23/12/2020 01:00:00,0.765
23/12/2020 01:15:00,0.765
23/12/2020 01:30:00,0.764
23/12/2020 01:45:00,0.763
23/12/2020 02:00:00,0.763
23/12/2020 02:15:00,0.761
23/12/2020 02:30:00,0.76
23/12/2020 02:45:00,0.759
23/12/2020 03:00:00,0.759
23/12/2020 03:15:00,0.758
23/12/2020 03:30:00,0.757
23/12/2020 03:45:00,0.757
23/12/2020 04:00:00,0.757
23/12/2020 04:15:00,0.756
23/12/2020 04:30:00,0.756
23/12/2020 04:45:00,0.755
23/12/2020 05:00:00,0.755
23/12/2020 05:15:00,0.754
23/12/2020 05:30:00,0.754
23/12/2020 05:45:00,0.753
23/12/2020 06:00:00,0.753
23/12/2020 06:15:00,0.752
23/12/2020 06:30:00,0.75
23/12/2020 06:45:00,0.749
23/12/2020 07:00:00,0.749
23/12/2020 07:15:00,0.749
23/12/2020 07:30:00,0.748
23/12/2020 07:45:00,0.747
23/12/2020 08:00:00,0.747
23/12/2020 08:15:00,0.746
23/12/2020 08:30:00,0.746
23/12/2020 08:45:00,0.745
23/12/2020 09:00:00,0.745
23/12/2020 09:15:00,0.745
23/12/2020 09:30:00,0.744
23/12/2020 09:45:00,0.743
23/12/2020 10:00:00,0.743
23/12/2020 10:15:00,0.742
23/12/2020 10:30:00,0.742
23/12/2020 10:45:00,0.742
23/12/2020 11:00:00,0.739
23/12/2020 11:15:00,0.739
23/12/2020 11:30:00,0.739
23/12/2020 11:45:00,0.738
23/12/2020 12:00:00,0.737
23/12/2020 12:15:00,0.737
23/12/2020 12:30:00,0.736
23/12/2020 12:45:00,0.736
23/12/2020 13:00:00,0.736
23/12/2020 13:15:00,0.735
23/12/2020 13:30:00,0.735
23/12/2020 13:45:00,0.735
23/12/2020 14:00:00,0.735
23/12/2020 14:15:00,0.734
23/12/2020 14:30:00,0.733
23/12/2020 14:45:00,0.733
23/12/2020 15:00:00,0.732
23/12/2020 15:15:00,0.732
23/12/2020 15:30:00,0.732
23/12/2020 15:45:00,0.731
23/12/2020 16:00:00,0.73
23/12/2020 16:15:00,0.73
23/12/2020 16:30:00,0.73
23/12/2020 16:45:00,0.73
23/12/2020 17:00:00,0.728
23/12/2020 17:15:00,0.727
23/12/2020 17:30:00,0.726
23/12/2020 17:45:00,0.726
23/12/2020 18:00:00,0.726
23/12/2020 18:15:00,0.726
23/12/2020 18:30:00,0.725
23/12/2020 18:45:00,0.725
23/12/2020 19:00:00,0.725
23/12/2020 19:15:00,0.725
23/12/2020 19:30:00,0.724
23/12/2020 19:45:00,0.724
23/12/2020 20:00:00,0.724
23/12/2020 20:15:00,0.723
23/12/2020 20:30:00,0.722
23/12/2020 20:45:00,0.722
23/12/2020 21:00:00,0.722
23/12/2020 21:15:00,0.721
23/12/2020 21:30:00,0.72
23/12/2020 21:45:00,0.72
23/12/2020 22:00:00,0.72
23/12/2020 22:15:00,0.72
23/12/2020 22:30:00,0.718
23/12/2020 22:45:00,0.718
23/12/2020 23:00:00,0.717
23/12/2020 23:15:00,0.716
23/12/2020 23:30:00,0.716
23/12/2020 23:45:00,0.716
24/12/2020 00:00:00,0.715
